Location: Sungai Kapitu
(2.6167°N, 113.3667°E)
Time: 14:20:46
(UTC+00:00)

Daily predictions for brighter satellites

Satellite Brightness Start Highest point End
(mag) Time Altitude Azimuth Time Altitude Azimuth Time Altitude Azimuth
Cosmos 1340 3.4 12:01:39 10° N 12:03:47 35° NNE 12:03:47 35° NNE
Cosmos 1726 4.1 12:02:38 10° NW 12:05:03 21° W 12:07:13 11° SW
Lacrosse 4 Rocket 1.4 12:05:02 10° NNW 12:09:17 83° WSW 12:09:58 62° S
Cosmos 1500 Rocket 3.4 12:05:18 10° N 12:09:38 82° E 12:10:15 65° SSE
ARIANE 5 DEB (SYLDA) 2.8 12:03:32 10° W 12:11:32 59° N 12:12:11 50° NE
Cosmos 1627 Rocket 4.4 12:07:31 23° SSE 12:11:34 65° E 12:17:44 10° NNE
SWIFT 4.5 12:09:04 10° SSW 12:09:53 14° SSW 12:09:53 14° SSW
Meteor 2-4 Rocket 4.2 12:07:00 10° SSW 12:12:49 63° W 12:18:39 10° N
CZ-4 R/B 1.9 12:14:56 44° NNE 12:14:56 44° NNE 12:17:45 10° N
Cosmos 1536 4.3 12:17:02 10° NNW 12:20:37 33° W 12:22:21 23° SW
deb Ariane 3.6 12:13:30 10° W 12:20:43 69° WSW 12:20:43 69° WSW
Resurs 01 Rocket 3.5 12:24:35 19° NNE 12:24:35 19° NNE 12:26:04 10° NNE
Ariane H10+ 4.1 12:14:16 10° WSW 12:22:29 66° SSE 12:31:33 34° E
SJ-6B 3.5 12:24:23 46° NW 12:24:23 46° NW 12:27:13 10° NNW
Cosmos 1805 Rocket 3.6 12:20:42 10° N 12:24:55 75° WNW 12:24:55 75° WNW
COSMOS 2406 4.3 12:26:54 10° SW 12:32:19 43° WNW 12:37:45 10° N
VEP-3 2.5 12:24:39 10° WNW 12:32:30 85° SSW 12:33:17 68° SE
Cosmos 1656 3.6 12:30:36 10° NNW 12:35:54 80° NNE 12:35:54 80° NNE
GPS 2-15 Rocket1 3.8 12:33:50 10° WSW 12:37:37 52° W 12:37:37 52° W
ARIANE 5 DEB (SYLDA) 3.7 12:26:09 10° W 12:38:41 87° SSW 12:38:41 87° SSW
Cosmos 1092 Rocket 4.5 12:39:56 21° SSW 12:44:04 58° W 12:50:16 10° N
GOES 2 Rocket 3.9 12:39:08 10° WSW 12:45:48 75° WSW 12:45:48 75° WSW
USA 59 Rocket 2.2 12:47:27 10° NW 12:53:55 47° WSW 12:56:58 35° SSW
ATLAS CENTAUR R/B 4.1 12:55:48 10° NNW 13:06:36 56° NE 13:06:36 56° NE
CZ-3 R/B 4.5 17:58:45 10° WNW 19:03:00 81° NNE 19:17:11 10° ESE
SL-16 R/B 4.3 19:10:08 26° NNE 19:10:08 26° NNE 19:13:08 10° N
Cosmos 2123 Rocket 4.4 19:43:05 10° N 19:48:59 57° E 19:48:59 57° E
Lacrosse 5 3.7 19:50:31 26° E 19:50:31 26° E 19:53:45 10° ENE
Cosmos 1943 4.1 19:44:40 10° N 19:49:58 44° ENE 19:50:00 44° ENE
Meteor 2-3 Rocket 4.4 19:55:30 51° E 19:55:30 51° E 20:01:03 10° NNE
ARIANE 5 DEB (SYLDA) 4.2 20:02:49 52° ESE 20:02:49 52° ESE 20:10:11 10° E
Cosmos 1818 4.4 20:04:57 10° N 20:10:08 48° ENE 20:15:18 10° SE
Iridium 4 Rocket 4.5 20:06:06 10° N 20:08:58 38° N 20:08:58 38° N
Gbstr 26 Del rocket 4.1 20:12:36 52° NNW 20:12:36 52° NNW 20:17:56 10° NNE
Skynet4D Del rocket 4.4 20:19:09 59° WSW 20:21:01 88° SSE 20:29:27 10° ENE
ATLAS 5 CENTAUR R/B 4.2 20:24:00 25° SSW 20:24:00 25° SSW 20:28:21 10° SSE
OAO 2 Rocket 3.4 20:21:58 67° NNE 20:21:58 67° NNE 20:26:20 10° NE
H-2A R/B 2.1 20:17:24 10° NNE 20:22:33 73° ESE 20:23:08 65° SSE
Cosmos 2058 Rocket 3.5 20:18:56 10° N 20:22:35 57° NE 20:22:35 57° NE
Cosmos 1939 Rocket 4.1 20:20:19 10° NE 20:23:54 35° E 20:24:17 34° ESE
Cosmos 1862 4.3 20:24:57 43° NE 20:24:57 43° NE 20:27:44 10° NNE
Spelda 30 4.3 20:23:27 55° SSW 20:24:28 63° SSE 20:49:14 10° E
Ariane H10-3 4.4 20:27:01 16° NE 20:27:01 16° NE 20:27:45 10° ENE
Cosmos 1153 Rocket 4.4 20:29:25 60° SW 20:30:12 66° W 20:36:17 10° N
Cosmos 2100 Rocket 4.2 20:26:38 22° S 20:30:54 69° E 20:37:04 10° N
BLOCK DM-SL R/B 4.4 20:30:47 45° WSW 20:33:22 75° S 21:06:47 10° E
ARIANE 5 R/B 3.0 20:33:06 54° SW 20:34:10 67° S 20:58:12 10° E
GPS 2-17 Rocket1 3.1 20:35:07 66° SSE 20:35:09 66° SSE 20:39:51 10° ENE
BLOCK DM-SL R/B 3.4 20:36:50 30° ESE 20:36:50 30° ESE 20:38:02 10° ESE
SL-4 R/B 2.6 20:32:01 10° NNW 20:36:24 62° NE 20:40:46 10° SE
Ariane H10 4.4 20:36:45 39° WSW 20:39:48 67° S 20:43:30 10° ESE
ARIANE 5 R/B 3.8 13:09:37 10° W 20:41:16 78° S 20:45:49 10° E
Cosmos 1943 Rocket 3.0 20:38:49 18° S 20:42:51 49° ESE 20:48:16 10° NNE
DMSP B5D2-2 4.0 20:43:11 10° SSE 20:48:26 90° WSW 20:53:41 10° NNW
Cosmos 1271 Rocket 4.1 20:50:42 24° NNW 20:50:42 24° NNW 20:52:26 10° NNW
ARIANE 5 R/B 3.6 20:50:31 10° NNE 20:55:13 42° ESE 20:59:57 10° S
Cosmos 2016 Rocket 4.5 20:50:05 10° S 20:56:08 61° E 21:02:14 10° NNE
Cosmos 1666 2.2 20:56:10 69° WSW 20:56:19 71° W 20:59:44 10° N
Cosmos 2278 Rocket 2.3 20:55:16 35° SW 20:57:29 56° WNW 21:03:00 10° N
ARGOS 3.5 20:52:16 10° NNE 20:57:38 67° ESE 21:03:01 10° S
USA 290 3.7 20:57:13 18° SSE 20:59:08 35° ESE 21:02:06 10° NE
Cosmos 1048 Rocket 3.9 20:54:19 10° NNW 20:59:33 69° WSW 21:04:52 10° S
Cosmos 1484 Rocket 3.6 21:01:24 10° NNW 21:04:29 30° WNW 21:04:29 30° WNW
Cosmos 468 4.5 21:00:04 10° NNW 21:05:22 88° E 21:10:42 10° SSE
ISS -2.2 21:03:58 19° S 21:05:35 30° SE 21:08:32 10° ENE
Atlas Centaur 2 3.2 21:10:56 19° SSW 21:10:56 19° SSW 21:13:33 10° S
Spelda 4.0 21:06:25 20° W 21:10:36 83° N 21:13:20 10° E
Cosmos 1500 4.3 21:11:41 23° WNW 21:11:41 23° WNW 21:13:53 10° NNW
H-2A R/B 2.3 21:10:31 10° N 21:13:41 59° WNW 21:15:13 27° SSW
FengYun 1-2 T 4.2 21:11:32 10° N 21:17:07 84° WNW 21:22:46 10° SSW
Cosmos 1782 2.7 21:13:57 10° NNW 21:17:43 59° W 21:21:29 10° S
Ariane H10+ 2.5 21:16:32 25° WSW 21:18:42 65° SSE 21:33:34 10° E
Cosmos 1603 4.3 21:16:01 10° NW 21:21:03 33° WSW 21:26:05 10° SSW
Cosmos 1378 3.0 21:18:40 10° N 21:21:54 68° E 21:25:07 10° S
Cosmos 2151 2.8 21:19:11 10° S 21:23:20 73° W 21:27:25 10° N
NOAA 12 4.2 21:18:09 10° NNE 21:23:27 85° ESE 21:28:47 10° S
Cosmos 192 4.3 21:21:28 11° SSW 21:26:00 61° WNW 21:30:49 10° N
Cosmos 1607 4.5 21:21:47 10° NNW 21:27:55 63° ENE 21:33:56 10° SSE
Cosmos 1953 Rocket 3.6 21:25:56 10° SSW 21:30:09 56° W 21:34:22 10° N
Cosmos 1933 3.3 21:26:32 10° NNW 21:30:23 59° W 21:34:16 10° S
Cosmos 1809 Rocket 4.5 21:25:06 10° NNW 21:31:04 60° W 21:37:07 10° S
Lacrosse 5 3.4 21:29:46 14° W 21:32:12 20° WNW 21:35:51 10° NNW
Cosmos 2084 4.0 21:29:01 16° SW 21:32:17 43° WNW 21:36:22 10° N
Cosmos 1802 Rocket 4.4 21:26:22 10° SSW 21:32:20 45° W 21:38:23 10° NNW
IRS-1C 4.2 21:28:44 10° N 21:33:56 59° WNW 21:39:10 10° SSW
Cosmos 1076 Rocket 3.4 21:31:35 10° S 21:35:48 84° W 21:40:00 10° N
GPS 2-12 Rocket1 3.0 21:31:08 10° WNW 21:35:49 74° SSW 21:40:27 10° ESE
ASTRO E2 2.9 21:35:22 10° NW 21:38:45 57° NNE 21:42:08 10° ESE
Cosmos 44 3.7 21:33:34 10° SW 21:38:45 56° WNW 21:44:00 10° N
CZ-2D R/B 3.4 21:36:40 10° NNE 21:40:36 84° E 21:44:30 10° S
ARIANE 5 DEB (SYLDA) 3.0 21:35:51 10° W 21:42:07 63° S 21:47:10 10° E
CZ-2D R/B 3.9 21:39:13 10° NNE 21:42:41 52° E 21:46:10 10° S
Meteor 1-26 Rocket 4.1 21:38:06 10° N 21:43:28 88° W 21:48:55 10° S
Cosmos-2242 4.2 21:43:38 10° NW 21:46:53 21° W 21:50:09 10° SW
USA 307 3.3 21:43:18 10° SSW 21:46:57 48° ESE 21:50:15 10° NE
NOSS 3-1 (C) 4.4 21:48:33 10° WSW 21:51:32 17° WNW 21:54:31 10° NNW
USA 305 2.1 21:48:54 10° SW 21:52:25 72° WNW 21:55:24 10° NNE
Cosmos 1812 Rocket 4.2 21:49:14 10° NNW 21:53:08 33° W 21:57:07 10° SSW
IRS-P3 4.4 21:48:33 10° N 21:53:37 47° WNW 21:58:42 10° SSW
SKYMED 2 4.2 21:56:18 10° SSE 22:00:36 64° ENE 22:04:53 10° N
ARIANE 5 DEB (SYLDA) 2.8 21:57:53 10° W 22:02:19 76° N 22:06:31 10° E
